North Platte, NE

5:24 PM CDT on April 21, 2018 (GMT -0500)
North Platte Regional-Bird

Weather History for KLBF - April, 2013

Change the Weather History Date:

Saturday, April 13, 2013

  Actual Average Record
Temperature  
Mean Temperature 44 °F 47 °F  
Max Temperature 64 °F 61 °F 88 °F (2006)
Min Temperature 23 °F 32 °F 9 °F (1997)
Degree Days  
Heating Degree Days 21 18  
Month to date heating degree days 301 264  
Since 1 July heating degree days 6134 6129  
Cooling Degree Days 0 0  
Month to date cooling degree days 0 0  
Year to date cooling degree days 0 0  
Moisture  
Dew Point 33 °F    
Average Humidity 72    
Maximum Humidity 100    
Minimum Humidity 44    
Precipitation  
Precipitation 0.00 in 0.07 in 1.64 in (1927)
Month to date precipitation 1.03 0.80  
Year to date precipitation 2.80 2.69  
Snow  
Snow 0.00 in 0.10 in 630.00 in (2009)
Month to date snowfall 0.9 1.8  
Since 1 July snowfall 23.5 27.1  
Snow Depth 0.00 in    
Sea Level Pressure  
Sea Level Pressure 29.78 in    
Wind  
Wind Speed 11 mph (SSE)    
Max Wind Speed 25 mph    
Max Gust Speed 37 mph    
Visibility 9 miles    
Events Fog    
T = Trace of Precipitation, MM = Missing Value Source: NWS Daily Summary

Daily Weather History Graph

Daily Weather History Graph

Search for Another Location

Airport or City:

Astronomy

Apr. 13, 2013 Rise Set
Actual Time 7:06 AM CDT 8:20 PM CDT
Civil Twilight 6:37 AM CDT 8:49 PM CDT
Nautical Twilight 6:03 AM CDT 9:23 PM CDT
Astronomical Twilight 5:27 AM CDT 9:59 PM CDT
Moon 8:57 AM CDT (4/13) 11:47 PM CDT (4/13)
Length of Visible Light 14h 11m
Length of Day
13h 14m
Waxing Crescent, 10% of the Moon is Illuminated
Apr 13
Waxing Crescent
Apr 18
First Quarter
Apr 25
Full
May 2
Last Quarter
May 9
New

Hourly Weather History & Observations

Time (CDT) Temp. Windchill Dew Point Humidity Pressure Visibility Wind Dir Wind Speed Gust Speed Precip Events Conditions
12:31 AM 30.2 °F 26.7 °F 26.6 °F 86% 30.02 in 10.0 mi WNW 3.5 mph - N/A   Mostly Cloudy
12:53 AM 30.9 °F - 28.9 °F 92% 30.06 in 10.0 mi Calm Calm - N/A   Mostly Cloudy
1:40 AM 32.0 °F 27.5 °F 28.4 °F 87% 30.01 in 10.0 mi NNW 4.6 mph - N/A   Overcast
1:53 AM 32.0 °F 26.4 °F 28.9 °F 88% 30.04 in 10.0 mi WSW 5.8 mph - N/A   Overcast
2:53 AM 28.0 °F 22.8 °F 26.1 °F 92% 30.04 in 10.0 mi NW 4.6 mph - N/A   Partly Cloudy
3:53 AM 27.0 °F - 25.0 °F 92% 30.01 in 10.0 mi Calm Calm - N/A   Scattered Clouds
4:43 AM 24.8 °F - 23.0 °F 93% 29.95 in 2.5 mi Calm Calm - N/A   Partly Cloudy
4:45 AM 24.8 °F - 23.0 °F 93% 29.94 in 1.0 mi Calm Calm - N/A   Mist
4:50 AM 24.8 °F - 23.0 °F 93% 29.94 in 0.2 mi Calm Calm - N/A Fog Light Freezing Fog
4:53 AM 26.1 °F - 23.0 °F 88% 30.00 in 0.2 mi Calm Calm - N/A Fog Light Freezing Fog
5:01 AM 26.6 °F - 24.8 °F 93% 29.94 in 1.0 mi Calm Calm - N/A   Mist
5:03 AM 24.8 °F - 24.8 °F 100% 29.94 in 1.8 mi Calm Calm - N/A   Partly Cloudy
5:05 AM 24.8 °F - 24.8 °F 100% 29.94 in 3.0 mi Calm Calm - N/A   Partly Cloudy
5:53 AM 25.0 °F - 23.0 °F 92% 29.98 in 10.0 mi Calm Calm - N/A   Clear
6:53 AM 25.0 °F - 24.1 °F 96% 29.96 in 10.0 mi Calm Calm - N/A   Scattered Clouds
7:53 AM 26.1 °F 21.9 °F 24.1 °F 92% 29.95 in 10.0 mi East 3.5 mph - N/A   Partly Cloudy
8:53 AM 33.1 °F 28.7 °F 28.9 °F 85% 29.91 in 10.0 mi ESE 4.6 mph - N/A   Partly Cloudy
9:53 AM 42.1 °F 36.1 °F 35.1 °F 76% 29.86 in 10.0 mi South 10.4 mph 16.1 mph N/A   Clear
10:53 AM 46.0 °F 38.8 °F 34.0 °F 63% 29.82 in 10.0 mi South 18.4 mph 26.5 mph N/A   Clear
11:53 AM 50.0 °F - 35.1 °F 57% 29.78 in 10.0 mi South 19.6 mph - N/A   Partly Cloudy
12:09 PM 48.2 °F - 35.6 °F 62% 29.74 in 10.0 mi South 20.7 mph 28.8 mph N/A   Mostly Cloudy
12:53 PM 52.0 °F - 37.9 °F 59% 29.72 in 10.0 mi South 13.8 mph 23.0 mph N/A   Overcast
1:22 PM 55.4 °F - 39.2 °F 54% 29.67 in 10.0 mi South 17.3 mph 26.5 mph N/A   Mostly Cloudy
1:53 PM 57.9 °F - 42.1 °F 56% 29.65 in 10.0 mi South 19.6 mph 29.9 mph N/A   Partly Cloudy
2:53 PM 59.0 °F - 42.1 °F 53% 29.62 in 10.0 mi South 18.4 mph 32.2 mph N/A   Partly Cloudy
3:53 PM 64.0 °F - 43.0 °F 46% 29.55 in 10.0 mi South 24.2 mph 29.9 mph N/A   Clear
4:53 PM 63.0 °F - 43.0 °F 48% 29.54 in 10.0 mi South 13.8 mph 21.9 mph N/A   Clear
5:53 PM 63.0 °F - 42.1 °F 46% 29.52 in 10.0 mi South 12.7 mph 20.7 mph N/A   Clear
6:53 PM 62.1 °F - 42.1 °F 48% 29.50 in 10.0 mi ESE 6.9 mph - N/A   Clear
7:53 PM 57.9 °F - 43.0 °F 58% 29.49 in 10.0 mi East 9.2 mph - N/A   Clear
8:53 PM 55.9 °F - 43.0 °F 62% 29.47 in 10.0 mi East 9.2 mph - N/A   Overcast
9:53 PM 55.0 °F - 44.1 °F 67% 29.46 in 10.0 mi East 13.8 mph - N/A   Scattered Clouds
10:53 PM 53.1 °F - 45.0 °F 74% 29.44 in 10.0 mi East 13.8 mph - N/A   Clear
11:53 PM 52.0 °F - 45.0 °F 77% 29.39 in 10.0 mi East 15.0 mph - N/A   Scattered Clouds